{"data":{"norad_id":58992,"epoch":"2026-09-22T21:04:11.387712Z","epoch_age_seconds":49618,"freshness":"FRESH","line1":"1 58992U 24034A   26265.87790958  .00165583  10326-4  11130-2 0  9992","line2":"2 58992  98.2066 311.6273 0103109 119.3440 241.8167 15.68015615142784","mean_motion":15.68015615,"eccentricity":0.0103109,"inclination_deg":98.2066,"raan_deg":311.6273,"arg_perigee_deg":119.344,"mean_anomaly_deg":241.8167,"bstar":0.001113,"rev_number":14278,"period_min":91.835820142646,"perigee_km":295.05631876822,"apogee_km":434.10327602073,"semimajor_km":6742.7167973945,"source":"CELESTRAK","updated_at":"2026-09-23T09:00:19.123431Z"}}